This demonstration page uses our WeatherBlox Daily Observations layout. Learn more.

Left ArrowRight Arrow

Hourly Observations for July 24, 2021

Temp ( °F °C ) Dew Point ( °F °C ) Humidity (%) Winds ( mph kmh ) Pressure ( in mb ) Visibility ( mi km ) Precip ( " mm )
12:56 am 00:56 Clear 72 22.2 65 18.3 79 79 S 3 6 29.90 1013 10 16 0.00 0.00
1:56 am 01:56 Clear 71 21.7 64 17.8 79 79 S 7 11 29.89 1012 10 16 0.00 0.00
2:56 am 02:56 Clear 72 22.2 64 17.8 76 76 SSW 8 13 29.89 1012 10 16 0.00 0.00
3:56 am 03:56 Clear 69 20.6 64 17.8 84 84 S 8 13 29.89 1012 10 16 0.00 0.00
4:56 am 04:56 Clear 68 20 64 17.8 87 87 Calm 29.90 1012 10 16 0.00 0.00
5:56 am 05:56 Clear 68 20 63 17.2 84 84 S 8 13 29.89 1012 10 16 0.00 0.00
6:56 am 06:56 Sunny 68 20 64 17.8 87 87 SSW 5 7 29.90 1012 10 16 0.00 0.00
7:56 am 07:56 Sunny 71 21.7 64 17.8 79 79 SSW 9 15 29.91 1013 10 16 0.00 0.00
8:56 am 08:56 Sunny 74 23.3 65 18.3 74 74 W 6 9 29.93 1014 10 16 0.00 0.00
9:56 am 09:56 Partly Cloudy 76 24.4 65 18.3 69 69 WSW 7 11 29.95 1014 10 16 0.00 0.00
10:56 am 10:56 Sunny 79 26.1 67 19.4 67 67 N 6 9 29.96 1014 10 16 0.00 0.00
11:56 am 11:56 Mostly Sunny 80 26.7 68 20 67 67 NE 8 13 29.97 1015 10 16 0.00 0.00
12:56 pm 12:56 Partly Cloudy 81 27.2 69 20.6 67 67 NE 9 15 29.98 1015 10 16 0.00 0.00
1:56 pm 13:56 Mostly Cloudy 82 27.8 70 21.1 67 67 ENE 9 15 29.98 1015 10 16 0.00 0.00
2:56 pm 14:56 Partly Cloudy 84 28.9 71 21.7 65 65 ENE 10 17 29.98 1015 10 16 0.00 0.00
3:56 pm 15:56 Partly Cloudy 85 29.4 71 21.7 63 63 ENE 10 17 29.99 1016 10 16 0.00 0.00
4:56 pm 16:56 Cloudy 84 28.9 72 22.2 67 67 ENE 10 17 29.99 1016 10 16 0.00 0.00
5:56 pm 17:56 Cloudy 84 28.9 72 22.2 67 67 NE 12 19 29.98 1015 10 16 0.00 0.00
6:56 pm 18:56 Mostly Cloudy 83 28.3 72 22.2 70 70 ENE 8 13 29.97 1015 10 16 0.00 0.00
7:56 pm 19:56 Partly Cloudy 80 26.7 74 23.3 82 82 ENE 7 11 29.98 1015 10 16 0.00 0.00
8:56 pm 20:56 Mostly Cloudy 78 25.6 74 23.3 87 87 E 6 9 29.98 1015 10 16 0.00 0.00
9:56 pm 21:56 Cloudy 78 25.6 73 22.8 85 85 SSE 3 6 30.01 1016 10 16 0.00 0.00
10:56 pm 22:56 Mostly Cloudy 77 25 72 22.2 85 85 SSW 5 7 30.02 1017 10 16 0.00 0.00
11:56 pm 23:56 Mostly Cloudy 77 25 71 21.7 82 82 NNE 5 7 30.01 1016 10 16 0.00 0.00

Powered by AerisWeather